When you browse on this site, cookies collect data to enhance your experience and personalize the content and advertising you see.
Visit our Privacy Policy to learn more. By continuing to use the site, you agree to this use of cookies and data.
  • In Austria
  • List of Countries
  • For 7 days
  • Water Temperature
  • Weather Map
  • News
  • Weather Widgets
  • user-avatar
    Login

    Hourly Weather Bafoussam

    Today, 6 June, Saturday

    Time Temperature Precipitation Wind Pressure Humidity
    00:00 +18°C° 0.2 mm 1 mps 645 mmHg 92%
    01:00 +18°C° 0.2 mm 1 mps 645 mmHg 93%
    02:00 +18°C° 0.1 mm 1 mps 645 mmHg 93%
    03:00 +18°C° 0.1 mm 1 mps 645 mmHg 92%
    04:00 +16°C° 0.1 mm 0 mps 644 mmHg 92%
    05:00 +17°C° 0 mm 0 mps 645 mmHg 92%
    06:00 +17°C° 0 mm 0 mps 645 mmHg 92%
    07:00 +17°C° 0 mm 0 mps 646 mmHg 92%
    08:00 +19°C° 0.5 mm 0 mps 647 mmHg 89%
    09:00 +23°C° 0.5 mm 1 mps 647 mmHg 85%
    10:00 +24°C° 0.5 mm 1 mps 648 mmHg 82%
    11:00 +24°C° 1.1 mm 1 mps 647 mmHg 82%
    12:00 +24°C° 1.1 mm 2 mps 647 mmHg 82%
    13:00 +24°C° 1.1 mm 2 mps 647 mmHg 81%
    14:00 +24°C° 0.8 mm 2 mps 646 mmHg 84%
    15:00 +23°C° 0.8 mm 1 mps 645 mmHg 86%
    16:00 +20°C° 0.8 mm 0 mps 644 mmHg 89%
    17:00 +19°C° 0.2 mm 0 mps 644 mmHg 90%
    18:00 +18°C° 0.2 mm 0 mps 644 mmHg 92%
    19:00 +17°C° 0.2 mm 0 mps 644 mmHg 93%
    20:00 +17°C° 0 mm 0 mps 644 mmHg 94%
    21:00 +19°C° 0 mm 1 mps 644 mmHg 94%
    22:00 +18°C° 0 mm 1 mps 645 mmHg 94%
    23:00 +18°C° 0 mm 1 mps 645 mmHg 94%

    Tomorrow, 7 June, Sunday

    Time Temperature Precipitation Wind Pressure Humidity
    00:00 +18°C° 0 mm 1 mps 644 mmHg 95%
    01:00 +18°C° 0 mm 1 mps 644 mmHg 95%
    02:00 +18°C° 0 mm 1 mps 644 mmHg 95%
    03:00 +18°C° 0 mm 1 mps 644 mmHg 95%
    04:00 +16°C° 0 mm 1 mps 644 mmHg 94%
    05:00 +18°C° 0 mm 1 mps 644 mmHg 94%
    06:00 +16°C° 0 mm 0 mps 645 mmHg 93%
    07:00 +17°C° 0 mm 0 mps 645 mmHg 92%
    08:00 +19°C° 0.2 mm 0 mps 646 mmHg 87%
    09:00 +21°C° 0.2 mm 0 mps 647 mmHg 83%
    10:00 +23°C° 0.2 mm 0 mps 647 mmHg 78%
    11:00 +25°C° 0.8 mm 1 mps 647 mmHg 76%
    12:00 +26°C° 0.8 mm 1 mps 646 mmHg 73%
    13:00 +26°C° 0.8 mm 1 mps 646 mmHg 71%
    14:00 +26°C° 0.6 mm 1 mps 645 mmHg 73%
    15:00 +26°C° 0.6 mm 1 mps 645 mmHg 75%
    16:00 +25°C° 0.6 mm 1 mps 644 mmHg 76%
    17:00 +24°C° 0.8 mm 1 mps 644 mmHg 82%
    18:00 +22°C° 0.8 mm 1 mps 644 mmHg 88%
    19:00 +20°C° 0.8 mm 1 mps 644 mmHg 94%
    20:00 +20°C° 0.3 mm 1 mps 644 mmHg 94%
    21:00 +19°C° 0.3 mm 1 mps 644 mmHg 95%
    22:00 +19°C° 0.3 mm 1 mps 644 mmHg 95%
    23:00 +18°C° 0.1 mm 1 mps 644 mmHg 96%

    Day after tomorrow, 8 June, Monday

    Time Temperature Precipitation Wind Pressure Humidity
    00:00 +18°C° 0.1 mm 1 mps 644 mmHg 96%
    01:00 +18°C° 0.1 mm 1 mps 644 mmHg 96%
    02:00 +18°C° 0 mm 1 mps 644 mmHg 96%
    03:00 +18°C° 0 mm 1 mps 644 mmHg 95%
    04:00 +18°C° 0 mm 1 mps 643 mmHg 95%
    05:00 +18°C° 0.6 mm 1 mps 644 mmHg 95%
    06:00 +18°C° 0.6 mm 1 mps 644 mmHg 96%
    07:00 +18°C° 0.6 mm 1 mps 645 mmHg 96%
    08:00 +19°C° 0.1 mm 1 mps 645 mmHg 92%
    09:00 +20°C° 0.1 mm 1 mps 645 mmHg 88%
    10:00 +22°C° 0.1 mm 1 mps 646 mmHg 84%
    11:00 +23°C° 0.3 mm 1 mps 646 mmHg 78%
    12:00 +25°C° 0.3 mm 1 mps 645 mmHg 71%
    13:00 +25°C° 0.3 mm 0 mps 645 mmHg 64%
    14:00 +26°C° 0.3 mm 1 mps 645 mmHg 69%
    15:00 +26°C° 0.3 mm 1 mps 644 mmHg 74%
    16:00 +25°C° 0.3 mm 2 mps 644 mmHg 78%
    17:00 +23°C° 1.2 mm 1 mps 644 mmHg 84%
    18:00 +22°C° 1.2 mm 1 mps 643 mmHg 89%
    19:00 +20°C° 1.2 mm 1 mps 643 mmHg 95%
    20:00 +20°C° 0.3 mm 1 mps 643 mmHg 95%
    21:00 +19°C° 0.3 mm 1 mps 643 mmHg 96%
    22:00 +18°C° 0.3 mm 2 mps 644 mmHg 96%
    23:00 +19°C° 0.1 mm 1 mps 644 mmHg 97%

    9 June, Tuesday

    Time Temperature Precipitation Wind Pressure Humidity
    00:00 +19°C° 0.1 mm 1 mps 644 mmHg 97%
    01:00 +19°C° 0.1 mm 1 mps 644 mmHg 97%
    02:00 +19°C° 0 mm 1 mps 643 mmHg 97%
    03:00 +18°C° 0 mm 1 mps 643 mmHg 97%
    04:00 +18°C° 0 mm 1 mps 643 mmHg 97%
    05:00 +19°C° 0.3 mm 1 mps 644 mmHg 97%
    06:00 +19°C° 0.3 mm 1 mps 644 mmHg 96%
    07:00 +19°C° 0.3 mm 1 mps 644 mmHg 96%
    08:00 +21°C° 0.4 mm 1 mps 645 mmHg 91%
    09:00 +22°C° 0.4 mm 1 mps 646 mmHg 87%
    10:00 +24°C° 0.4 mm 1 mps 646 mmHg 83%
    11:00 +24°C° 1 mm 1 mps 646 mmHg 83%
    12:00 +24°C° 1 mm 1 mps 646 mmHg 83%
    13:00 +23°C° 1 mm 0 mps 645 mmHg 83%
    14:00 +22°C° 1.2 mm 0 mps 645 mmHg 84%
    15:00 +22°C° 1.2 mm 0 mps 644 mmHg 85%
    16:00 +21°C° 1.2 mm 0 mps 644 mmHg 86%
    17:00 +20°C° 0.4 mm 0 mps 644 mmHg 89%
    18:00 +21°C° 0.4 mm 1 mps 643 mmHg 92%
    19:00 +19°C° 0.4 mm 1 mps 643 mmHg 95%
    20:00 +19°C° 0 mm 1 mps 643 mmHg 96%
    21:00 +19°C° 0 mm 1 mps 644 mmHg 96%
    22:00 +18°C° 0 mm 1 mps 644 mmHg 97%
    23:00 +18°C° 0 mm 1 mps 644 mmHg 97%

    10 June, Wednesday

    Time Temperature Precipitation Wind Pressure Humidity
    00:00 +18°C° 0 mm 1 mps 644 mmHg 97%
    01:00 +18°C° 0 mm 1 mps 644 mmHg 97%
    02:00 +18°C° 0 mm 1 mps 644 mmHg 97%
    03:00 +18°C° 0 mm 1 mps 644 mmHg 97%
    04:00 +18°C° 0 mm 1 mps 644 mmHg 97%
    05:00 +18°C° 0 mm 1 mps 644 mmHg 97%
    06:00 +18°C° 0 mm 1 mps 644 mmHg 96%
    07:00 +17°C° 0 mm 0 mps 645 mmHg 95%
    08:00 +19°C° 0 mm 0 mps 645 mmHg 88%
    09:00 +21°C° 0 mm 0 mps 646 mmHg 81%
    10:00 +23°C° 0 mm 0 mps 647 mmHg 73%
    11:00 +24°C° 0.4 mm 0 mps 647 mmHg 72%
    12:00 +26°C° 0.4 mm 1 mps 646 mmHg 70%
    13:00 +27°C° 0.4 mm 1 mps 646 mmHg 69%
    14:00 +26°C° 0.8 mm 1 mps 645 mmHg 73%
    15:00 +25°C° 0.8 mm 1 mps 645 mmHg 78%
    16:00 +24°C° 0.8 mm 1 mps 644 mmHg 83%
    17:00 +23°C° 0.9 mm 1 mps 644 mmHg 87%
    18:00 +22°C° 0.9 mm 1 mps 644 mmHg 90%
    19:00 +20°C° 0.9 mm 1 mps 644 mmHg 94%
    20:00 +20°C° 0.7 mm 1 mps 644 mmHg 94%
    21:00 +19°C° 0.7 mm 1 mps 645 mmHg 95%
    22:00 +19°C° 0.7 mm 1 mps 645 mmHg 96%
    23:00 +19°C° 2 mm 1 mps 645 mmHg 97%

    11 June, Thursday

    Time Temperature Precipitation Wind Pressure Humidity
    00:00 +19°C° 2 mm 1 mps 645 mmHg 97%
    01:00 +18°C° 2 mm 1 mps 644 mmHg 98%
    02:00 +18°C° 0.9 mm 1 mps 644 mmHg 97%
    03:00 +18°C° 0.9 mm 1 mps 644 mmHg 97%
    04:00 +18°C° 0.9 mm 1 mps 643 mmHg 96%
    05:00 +16°C° 0 mm 0 mps 644 mmHg 95%
    06:00 +17°C° 0 mm 0 mps 644 mmHg 95%
    07:00 +17°C° 0 mm 0 mps 644 mmHg 94%
    08:00 +19°C° 0 mm 0 mps 645 mmHg 87%
    09:00 +21°C° 0 mm 0 mps 646 mmHg 80%
    10:00 +25°C° 0 mm 1 mps 647 mmHg 73%
    11:00 +25°C° 0.3 mm 1 mps 647 mmHg 71%
    12:00 +26°C° 0.3 mm 1 mps 646 mmHg 70%
    13:00 +26°C° 0.3 mm 1 mps 646 mmHg 68%
    14:00 +26°C° 1 mm 1 mps 645 mmHg 73%
    15:00 +25°C° 1 mm 1 mps 644 mmHg 78%
    16:00 +25°C° 1 mm 1 mps 644 mmHg 82%
    17:00 +23°C° 0.8 mm 1 mps 643 mmHg 86%
    18:00 +22°C° 0.8 mm 1 mps 643 mmHg 90%
    19:00 +18°C° 0.8 mm 0 mps 643 mmHg 94%
    20:00 +18°C° 1.3 mm 0 mps 644 mmHg 94%
    21:00 +17°C° 1.3 mm 0 mps 644 mmHg 95%
    22:00 +17°C° 1.3 mm 0 mps 644 mmHg 95%
    23:00 +17°C° 0.5 mm 0 mps 644 mmHg 95%
    Show more